www.dot.state.il.us - /desenv/hwystds/Rev214/Revision 214 pdfs/


[To Parent Directory]

Wednesday, September 26, 2012 1:25 PM 35041422 1_Rev214_AllHighwayStandards_PDF.exe
Wednesday, September 26, 2012 1:27 PM 933137 1_Rev214_Div000_PDF.exe
Wednesday, September 26, 2012 1:27 PM 514702 1_Rev214_Div200_PDF.exe
Wednesday, September 26, 2012 1:28 PM 259027 1_Rev214_Div300_PDF.exe
Wednesday, September 26, 2012 1:28 PM 5795172 1_Rev214_Div400_PDF.exe
Wednesday, September 26, 2012 1:29 PM 7672129 1_Rev214_Div500_PDF.exe
Wednesday, September 26, 2012 1:30 PM 10337386 1_Rev214_Div600_PDF.exe
Wednesday, September 26, 2012 1:30 PM 5023090 1_Rev214_Div700_PDF.exe
Wednesday, September 26, 2012 1:31 PM 4135960 1_Rev214_Div800_PDF.exe
Wednesday, September 26, 2012 1:32 PM 1887894 1_Rev214_DivBLR_PDF.exe
Monday, August 20, 2012 9:05 AM 615740 214-000001-06_standardsymbolsabbreviations&patterns.pdf
Friday, August 17, 2012 10:35 AM 78905 214-001001-02_areasofreinfrebars.pdf
Friday, August 17, 2012 10:35 AM 105595 214-001006_decimalofinch&foot.pdf
Friday, August 17, 2012 10:35 AM 59581 214-202001-01_earthmedditchcheck.pdf
Wednesday, September 26, 2012 11:19 AM 206626 214-280001-07_temperosioncntrlsystems.pdf
Friday, August 17, 2012 10:35 AM 100303 214-285001-02_fabricformedconcrevetmentmats.pdf
Friday, August 17, 2012 10:35 AM 99406 214-353001-04_pccbsecsewithhmabind&surfcses.pdf
Monday, August 20, 2012 9:09 AM 205310 214-406001-05_entrramptermflexpvmt.pdf
Monday, August 20, 2012 9:13 AM 302177 214-406101-04_exitrampterminal.pdf
Friday, August 17, 2012 10:35 AM 71465 214-406201-01_mailboxturnout.pdf
Monday, August 20, 2012 9:38 AM 198374 214-420001-07_pavementjoints.pdf
Friday, August 17, 2012 10:35 AM 86874 214-420101-04_24ftjointedpccpvmt.pdf
Friday, August 17, 2012 10:35 AM 99317 214-420106-04_36ftjointedpccpvmt.pdf
Monday, August 20, 2012 9:44 AM 230398 214-420111-03_pccpvmtroundouts.pdf
Monday, August 20, 2012 9:45 AM 247304 214-420201-07_entrrampterm-pccadjtopcc.pdf
Monday, August 20, 2012 9:46 AM 253664 214-420206-08_entrrampterm-pccadjtocrc.pdf
Monday, August 20, 2012 9:47 AM 354247 214-420301-04_exitrampterm-pccadjtopcc.pdf
Monday, August 20, 2012 9:59 AM 351917 214-420306-06_exitrampterm-pccadjtocrc.pdf
Wednesday, September 26, 2012 11:20 AM 174402 214-420401-09_bridgeapproachpvmtconnector.pdf
Friday, August 17, 2012 10:35 AM 87997 214-420501-04_pccpvmt&pccbsecseadjtorrgradexing.pdf
Friday, August 17, 2012 10:35 AM 70422 214-420601-05_24ftpccpvmt.pdf
Friday, August 17, 2012 10:35 AM 92570 214-420701-02_pavementfabric-.pdf
Friday, August 17, 2012 10:35 AM 89659 214-421001-02_barreinfforcrcpvmt.pdf
Monday, August 20, 2012 10:34 AM 312388 214-421101-08_24ftcrcpvmt-wwideflangebeamtermjt.pdf
Monday, August 20, 2012 10:35 AM 316069 214-421106-08_36ftcrcpvmt-wwideflangebeamtermjt.pdf
Monday, August 20, 2012 10:36 AM 222462 214-421201-06_24ftcrcpvmt-wlugsys.pdf
Monday, August 20, 2012 10:37 AM 238427 214-421206-06_36ftcrcpvmt-wlugsys.pdf
Wednesday, September 26, 2012 11:21 AM 236911 214-424001-07_PerpendicularCurbRamps.pdf
Tuesday, August 21, 2012 8:53 AM 105055 214-424006-01_DiagonalCurbRamps.pdf
Tuesday, August 21, 2012 8:53 AM 96205 214-424011-01_CornerParallelCurbRamps.pdf
Tuesday, August 21, 2012 8:53 AM 125469 214-424016-01_MidBlockCurbRamps.pdf
Tuesday, August 21, 2012 8:53 AM 110365 214-424021-01_DepressedCorner.pdf
Tuesday, August 21, 2012 8:53 AM 105981 214-424026-01_EntranceAlleyPedestrianCrossings.pdf
Tuesday, August 21, 2012 8:53 AM 81890 214-424031-01_MedianPedestrianCrossings.pdf
Monday, August 20, 2012 10:39 AM 144396 214-442001-04_classapatches.pdf
Monday, August 20, 2012 10:42 AM 220582 214-442101-07_classbpatches.pdf
Friday, August 17, 2012 10:35 AM 116492 214-442201-03_classc&dpatches.pdf
Friday, August 17, 2012 10:35 AM 89961 214-482001-02_hmashldadjtoflexpvmt.pdf
Friday, August 17, 2012 10:35 AM 87208 214-482006-03_hmashldadjtorigidpvmt.pdf
Monday, August 20, 2012 10:45 AM 211731 214-482011-03_hmashldstrips(shlds)wresurforwiden&resurfproj.pdf
Friday, August 17, 2012 10:35 AM 129424 214-483001-04_pccshld.pdf
Monday, August 20, 2012 10:50 AM 116033 214-515001-03_nameplateforbridges.pdf
Monday, September 17, 2012 11:52 AM 523083 214-542001-03_ConcreteEndSectionsforPipeCulverts15inthru84inDia.pdf
Monday, September 17, 2012 11:53 AM 1221123 214-542006_MultipleConcreteEndSectionsforPipeCulverts15inThru84inDia.pdf
Monday, September 17, 2012 11:54 AM 550368 214-542011_ConcreteEndSectionsforEllipticalPipeCulverts15inThru72inEquivDia.pdf
Monday, September 17, 2012 11:55 AM 1298369 214-542016_MultipleConcreteEndSectionsforPipeCulverts15inThru72inEquivDia.pdf
Monday, August 20, 2012 10:53 AM 895271 214-542201-02_reinfconcendsectforpipeculv15-36indiaskewed.pdf
Monday, August 20, 2012 10:54 AM 602860 214-542206-02_reinfconcendsectforpipeculv42-60indiaskewed.pdf
Wednesday, September 26, 2012 11:14 AM 111919 214-542301-03_precastreinfconcflaredendsect.pdf
Wednesday, September 26, 2012 11:14 AM 91844 214-542306-02_precastreinfconcellipticalflaredendsect.pdf
Thursday, September 20, 2012 2:03 PM 227957 214-542311-04_TraversablePipeGrate.pdf
Friday, August 17, 2012 10:35 AM 122330 214-542401-01_metalendsectforpipeculv.pdf
Friday, August 17, 2012 10:35 AM 123234 214-542406-01_metalendsectforpipearch.pdf
Monday, August 20, 2012 10:56 AM 141372 214-542501-02_inletboxtypea24in.pdf
Monday, August 20, 2012 10:58 AM 155629 214-542506-02_inletboxtypeb24in.pdf
Monday, August 20, 2012 11:07 AM 154692 214-542511-02_inletboxtypec24in.pdf
Monday, August 20, 2012 11:11 AM 170983 214-542516-03_inletboxtyped24in.pdf
Monday, August 20, 2012 11:14 AM 163274 214-542521-02_inletboxtypee24in.pdf
Monday, August 20, 2012 11:16 AM 193616 214-542526-03_inletboxtypef24in.pdf
Monday, August 20, 2012 11:17 AM 179167 214-542531-04_inletboxtypeg24in.pdf
Monday, August 20, 2012 11:18 AM 180165 214-542536-03_inletboxtypea36in.pdf
Monday, August 20, 2012 11:19 AM 178936 214-542541-02_inletboxtypea48in.pdf
Friday, August 17, 2012 10:36 AM 126535 214-542546-01_flushinletboxformedian.pdf
Friday, August 17, 2012 10:36 AM 74882 214-542601-03_rcpipeelbow.pdf
Friday, August 17, 2012 10:36 AM 121354 214-542606-02_rcpipetee.pdf
Monday, August 20, 2012 11:26 AM 238698 214-601001-04_subsurfdrains.pdf
Friday, August 17, 2012 10:36 AM 59099 214-601101-01_conchdwforpipedrain.pdf
Friday, August 17, 2012 10:36 AM 84687 214-602001-02_catchbasin-typea.pdf
Tuesday, August 21, 2012 8:53 AM 91646 214-602006-04_catchbasin-typeb-028.pdf
Friday, August 17, 2012 10:36 AM 66161 214-602011-02_catchbasin-typec.pdf
Friday, August 17, 2012 10:36 AM 109739 214-602016-02_catchbasin-typed.pdf
Monday, August 20, 2012 11:39 AM 175168 214-602101-02_drainstruc-type1&2&3.pdf
Monday, August 20, 2012 11:40 AM 176864 214-602106-01_drainstruc-type4&5&6.pdf
Friday, August 17, 2012 10:36 AM 65314 214-602301-03_inlet-typea.pdf
Friday, August 17, 2012 10:36 AM 77985 214-602306-03_inlet-typeb.pdf
Friday, August 17, 2012 10:36 AM 84391 214-602401-03_manhole-typea.pdf
Monday, August 20, 2012 11:42 AM 169870 214-602406-05_manhole-typea6ftdia.pdf
Monday, August 20, 2012 11:44 AM 177161 214-602411-03_manhole-typea7ftdia.pdf
Monday, August 20, 2012 11:55 AM 178582 214-602416-03_manhole-typea8ftdia.pdf
Monday, August 20, 2012 11:56 AM 177447 214-602421-03_manhole-typea9ftdia.pdf
Friday, August 17, 2012 10:36 AM 81734 214-602501-02_valvevault-typea.pdf
Friday, August 17, 2012 10:36 AM 94504 214-602601-02_precastreinfconcflatslabtop.pdf
Monday, August 20, 2012 11:57 AM 72380 214-602701-02_manholesteps.pdf
Friday, August 17, 2012 10:36 AM 61851 214-604001-03_frame&lids-type1.pdf
Friday, August 17, 2012 10:36 AM 82527 214-604006-04_Frame&GrateType3.pdf
Friday, August 17, 2012 10:36 AM 86929 214-604011-04_frame&gratetype3v.pdf
Friday, August 17, 2012 10:36 AM 52965 214-604016-02_frame&gratetype4.pdf
Friday, August 17, 2012 10:36 AM 81799 214-604021-02_baseframe&lidstype5.pdf
Friday, August 17, 2012 10:36 AM 66680 214-604026-02_Frame&GrateType6.pdf
Friday, August 17, 2012 10:36 AM 39418 214-604031-02_GrateType7.pdf
Friday, August 17, 2012 10:36 AM 39508 214-604036-02_GrateType8.pdf
Friday, August 17, 2012 10:36 AM 58633 214-604041-02_frame&gratetype9.pdf
Friday, August 17, 2012 10:36 AM 59518 214-604046-02_frame&gratetype10.pdf
Friday, August 17, 2012 10:36 AM 81697 214-604051-03_frame&gratetype11.pdf
Friday, August 17, 2012 10:36 AM 90606 214-604056-03_frame&gratetype11v.pdf
Friday, August 17, 2012 10:36 AM 63980 214-604061-02_frame&gratetype12.pdf
Friday, August 17, 2012 10:36 AM 84657 214-604066-02_frame&lidtype15.pdf
Friday, August 17, 2012 10:36 AM 65057 214-604071-04_frame&gratetype20.pdf
Friday, August 17, 2012 10:36 AM 80432 214-604076-04_frame&gratetype21.pdf
Friday, August 17, 2012 10:36 AM 73862 214-604081-04_frame&gratetype22.pdf
Friday, August 17, 2012 10:36 AM 85959 214-604086-02_frame&gratetype23.pdf
Friday, August 17, 2012 10:36 AM 79196 214-604091-02_frame&gratetype24.pdf
Friday, August 17, 2012 10:36 AM 81933 214-604101-01_medianinletfor24inrcpipe.pdf
Friday, August 17, 2012 10:36 AM 85732 214-604106-01_medianinletfor36inrcpipe.pdf
Wednesday, September 26, 2012 11:24 AM 258965 214-606001-05_conccurbtypeb&comboconcc&g.pdf
Monday, August 20, 2012 1:37 PM 229539 214-606006-02_outletsforconcc&g-typeb-6.24.pdf
Monday, August 20, 2012 1:38 PM 215406 214-606101-04_typeagut-inloutl&entr.pdf
Friday, August 17, 2012 10:36 AM 97964 214-606106-04_outltype1fortypeagut.pdf
Friday, August 17, 2012 10:36 AM 109199 214-606111-03_outltype2fortypeagut.pdf
Monday, August 20, 2012 1:40 PM 180521 214-606201-02_typebgut-inloutl&entr.pdf
Friday, August 17, 2012 10:36 AM 94537 214-606206-03_outltype1fortypebgut.pdf
Friday, August 17, 2012 10:36 AM 111253 214-606211-03_outltype2fortypebgut.pdf
Monday, August 20, 2012 1:41 PM 225707 214-606301-04_PCCIslands&Medians.pdf
Friday, August 17, 2012 10:36 AM 96491 214-606306-03_corrugatedpccmedians.pdf
Friday, August 17, 2012 10:36 AM 121772 214-606401-01_pavedditch.pdf
Monday, August 20, 2012 1:43 PM 259868 214-609006-05_BridgeApproachPvmt(DrainDetail).pdf
Monday, August 20, 2012 1:43 PM 225463 214-610001-06_ShldInletWithCurb.pdf
Monday, August 20, 2012 1:44 PM 315439 214-630001-10_SteelPlateBeamGrdrail.pdf
Monday, August 20, 2012 1:45 PM 186316 214-630101-09_GuardrailMountedOnExCulv.pdf
Tuesday, August 21, 2012 8:53 AM 65159 214-630106-1_LongSpanGuardrailOverCulvert.pdf
Friday, August 17, 2012 10:36 AM 92362 214-630201-06_PCC-BitStb@SteelPlateBeamGrdRail.pdf
Wednesday, September 26, 2012 11:25 AM 119735 214-630301-06_ShldWidenForType1GrdrailTerms.pdf
Friday, August 17, 2012 10:36 AM 89731 214-631006-08_TrafBarTermType1B.pdf
Tuesday, August 21, 2012 8:53 AM 90599 214-631011-09_TrafBarTermType2.pdf
Friday, August 17, 2012 10:36 AM 109502 214-631026-05_TrafBarTermType5.pdf
Wednesday, September 26, 2012 11:26 AM 210234 214-631031-11_TrafBarTermType6.pdf
Wednesday, September 26, 2012 11:27 AM 251632 214-631032-08_TrafBarTermType6A.pdf
Monday, August 20, 2012 1:49 PM 180963 214-631033-04_trafbartermtype6B.pdf
Friday, August 17, 2012 10:36 AM 101227 214-631046-04_trafbartermtype10.pdf
Friday, August 17, 2012 10:36 AM 109947 214-631051-03_trafbartermtype11.pdf
Friday, August 17, 2012 10:36 AM 108295 214-635001-01_delineators.pdf
Friday, August 17, 2012 10:36 AM 85275 214-635006-03_reflector&termmrkrplacemnt.pdf
Monday, August 20, 2012 1:51 PM 175785 214-635011-02_reflectormrkr&mountdetails.pdf
Monday, August 20, 2012 1:52 PM 311639 214-636001-02_cablerdgrd-singlestrand.pdf
Wednesday, September 26, 2012 11:28 AM 149333 214-637001-05_concbarrierdblface32in.pdf
Wednesday, September 26, 2012 11:29 AM 152159 214-637006-03_concbarrierdblface42in.pdf
Friday, August 17, 2012 10:36 AM 77018 214-638001-02_glarescreenblades.pdf
Friday, August 17, 2012 10:36 AM 56910 214-638101-02_concglarescreen.pdf
Monday, August 20, 2012 1:54 PM 180591 214-639001-02_sightscrn-precstprestressconcpanelwall.pdf
Monday, August 20, 2012 1:55 PM 209915 214-640001-01_sightscrn-chainlinkfence.pdf
Friday, August 17, 2012 10:37 AM 88015 214-641001-01_sightscrn-cedarstckadefencetypes.pdf
Friday, August 17, 2012 10:37 AM 83580 214-641006-01_sightscrn-woodplankfencetypep.pdf
Friday, August 17, 2012 10:37 AM 92185 214-642001-02_ShoulderRumbleStrip16in.pdf
Friday, August 17, 2012 10:37 AM 60808 214-642006_ShoulderRumbleStrip8in.pdf
Tuesday, August 21, 2012 8:53 AM 70513 214-643001-01_SandModuleImpactAttenuators.pdf
Monday, August 20, 2012 1:57 PM 364296 214-664001-02_ChainLinkFence.pdf
Monday, August 20, 2012 1:59 PM 435506 214-665001-02_WovenWireFence.pdf
Friday, August 17, 2012 10:37 AM 68092 214-666001-01_ROWMrkrs.pdf
Friday, August 17, 2012 10:37 AM 45869 214-667001-01_DrainageMrkrs.pdf
Friday, August 17, 2012 10:37 AM 88326 214-667101-02_PermanentSurveyMrkrs.pdf
Friday, August 17, 2012 10:37 AM 46890 214-668001-01_MethOfResetting-USGS&NGS-Benchmarks.pdf
Friday, August 17, 2012 10:37 AM 52277 214-701001-02_OffRdOp-2L2W-15ftMinFromEOP-45MPH+.pdf
Tuesday, August 21, 2012 8:53 AM 67707 214-701006-04_OffRdOp-2L2W-15ftToEOP-45MPH+.pdf
Tuesday, August 21, 2012 8:53 AM 62089 214-701011-03_OffRdMovingOp-2L2W-DayOnly-45MPH+.pdf
Tuesday, August 21, 2012 8:53 AM 69084 214-701101-03_OffRdOp-MultiLn-LessThan15ftToEOP.pdf
Friday, August 17, 2012 10:37 AM 54433 214-701106-02_OffRdOp-MultiLn-MoreThan15ftAway.pdf
Friday, August 17, 2012 10:37 AM 74922 214-701201-04_LnClosure2L2W-DayOnly.pdf
Friday, August 17, 2012 10:37 AM 68755 214-701206-03_LnClosure2L2W-NightOnly45MPH+.pdf
Friday, August 17, 2012 10:37 AM 68338 214-701301-04_LnClosure2L2W-ShortTimeOp.pdf
Friday, August 17, 2012 10:37 AM 78199 214-701306-03_LnClosure2L2W-SlowMoveOpDayOnly45MPH+.pdf
Friday, August 17, 2012 10:37 AM 68743 214-701311-03_LnClosure2L2W-MovingOpDayOnly.pdf
Wednesday, September 26, 2012 11:32 AM 141486 214-701316-07_LnClosure2L2W-BridgeRepair45MPH+.pdf
Wednesday, September 26, 2012 11:32 AM 161432 214-701321-13 LnClosure2L2W-BridgeRepair+Barrier.pdf
Friday, August 17, 2012 10:37 AM 82321 214-701326-04_LnClosure2L2W-PvmtWidening45MPH+.pdf
Friday, August 17, 2012 10:37 AM 99046 214-701331-04_LnClosure2L2W+RunAround45MPH+.pdf
Friday, August 17, 2012 10:37 AM 96414 214-701336-06_LnClosure2L2W-WorkAreasInSeries45MPH+.pdf
Tuesday, August 21, 2012 8:53 AM 89010 214-701400-06_ApprchToLnClosure-FrwayExpway.pdf
Tuesday, August 21, 2012 8:53 AM 102708 214-701401-07_LnClosureFrwayExpway.pdf
Friday, August 17, 2012 10:37 AM 88182 214-701402-09_LnClosureFrwayExpway+Barrier.pdf
Tuesday, August 21, 2012 8:53 AM 95154 214-701406-07_LnClosureFrwayExpway-DayOpOnly.pdf
Monday, August 20, 2012 2:06 PM 189455 214-701411-08_LnClosureMultiLn-EntrOrExitRamp45MPH+.pdf
Friday, August 17, 2012 10:37 AM 91969 214-701416-07_LnClosureFrwayExpway+Crossover&Barrier.pdf
Tuesday, August 21, 2012 8:53 AM 105424 214-701421-05_LnClosureMultiLn-DayOpOnly45-55MPH.pdf
Tuesday, August 21, 2012 8:53 AM 114093 214-701422-05_LnClosureMultiLn-45-55MPH.pdf
Tuesday, August 21, 2012 8:53 AM 110864 214-701423-06_LnClosureMultiln+Barrier45-55MPH.pdf
Tuesday, August 21, 2012 8:53 AM 88773 214-701426-05_LnClosureMultiLn-IntermittantOrMovingOp45MPH+.pdf
Tuesday, August 21, 2012 8:53 AM 89169 214-701427-01_LnClosureMultiLn-IntermittantOrMovingOpLTorEQ40MPH.pdf
Tuesday, August 21, 2012 8:53 AM 119519 214-701431-08_LnClosureMultiLnUndivided+Crossover45-55MPH.pdf
Tuesday, August 21, 2012 8:53 AM 114255 214-701446-04_TwoLnClosure-FrwayExpway.pdf
Friday, August 17, 2012 10:37 AM 77025 214-701451-01_RampClosureFreewayExp.pdf
Friday, August 17, 2012 10:37 AM 54107 214-701456-02_PartialExitRampClosureFreewayExpressway.pdf
Friday, August 17, 2012 10:37 AM 80430 214-701501-06_UrbanLnClosure2L2W-Undivided.pdf
Wednesday, September 26, 2012 11:35 AM 129025 214-701502-05_UrbanLnClosure2L2W+BidirectLeftTurnLn.pdf
Wednesday, September 26, 2012 11:36 AM 117965 214-701601-08_UrbanLnClosureMultiLn1W2W+NontrvsableMed.pdf
Wednesday, September 26, 2012 11:50 AM 216564 214-701602-06_UrbanLnClosureMultiLn2W+BidirectLeftTurnLn.pdf
Monday, August 20, 2012 2:09 PM 141824 214-701606-08_UrbanLnClosureMultiLn2W+MountableMed.pdf
Friday, August 17, 2012 10:37 AM 102910 214-701701-08_UrbanLnClosureMultiLnIntersection.pdf
Monday, August 20, 2012 2:11 PM 146785 214-701801-05_SidewalkCornerOrCrosswalkClosure.pdf
Monday, August 20, 2012 2:12 PM 264626 214-701901-02_TrafCntrlDevices.pdf
Monday, August 20, 2012 2:13 PM 176123 214-704001-07_TempConcBarrier.pdf
Friday, August 17, 2012 10:37 AM 85372 214-720001-01_SignPanelMountDetails.pdf
Friday, August 17, 2012 10:37 AM 77393 214-720006-03_SignPanelErectDetails.pdf
Friday, August 17, 2012 10:37 AM 69568 214-720011-01_MetalPostsForSignsMrkrs&Delineators.pdf
Friday, August 17, 2012 10:37 AM 89832 214-720016-03_MastArmMountedStNameSigns.pdf
Monday, August 20, 2012 2:18 PM 187364 214-720021-02_SignPanels-ExtrudedAlumType.pdf
Friday, August 17, 2012 10:37 AM 65757 214-728001-01_TelescopingSteelSignSupport.pdf
Friday, August 17, 2012 10:37 AM 87903 214-729001-01_AppOfTypesA&BPosts.pdf
Friday, August 17, 2012 10:37 AM 64062 214-731001-01_BaseForTelescopingSteelSignSupport.pdf
Monday, August 20, 2012 2:19 PM 143202 214-780001-03_TypicalPvmtMrkings.pdf
Friday, August 17, 2012 10:37 AM 90060 214-781001-03_TypicalAppRaisedReflcPvmtMrkrs.pdf
Friday, August 17, 2012 10:37 AM 64225 214-782001_PrismaticReflectorsOnCurbs.pdf
Friday, August 17, 2012 10:37 AM 84373 214-805001-01_ElecSrvcInstallDetails.pdf
Friday, August 17, 2012 10:37 AM 75961 214-814001-02_Handholes.pdf
Friday, August 17, 2012 10:37 AM 82179 214-814006-02_DoubleHandholes.pdf
Monday, August 20, 2012 2:25 PM 186813 214-825001-01_LightingControllerPoleMount240V.pdf
Friday, August 17, 2012 10:37 AM 111443 214-825006-01_LightingControllerPoleMount480V.pdf
Friday, August 17, 2012 10:37 AM 111398 214-825011-02_LightingControllerPedestalMount240V.pdf
Friday, August 17, 2012 10:37 AM 120039 214-825016-02_LightingControllerPedestalMount480V.pdf
Friday, August 17, 2012 10:37 AM 115380 214-825021-02_LightingControllerBaseMount240V.pdf
Friday, August 17, 2012 10:37 AM 124152 214-825026-02_LightingControllerBaseMount480V.pdf
Monday, August 20, 2012 2:27 PM 151347 214-826001_NavigationObstructionLightingController240V.pdf
Monday, August 20, 2012 2:28 PM 159378 214-826006_NavigationObstructionLightingController480V.dgn.pdf
Wednesday, September 26, 2012 11:52 AM 125406 214-830001-01_LightPoleAluminumMastArm.pdf
Wednesday, September 26, 2012 11:52 AM 149908 214-830006-01_LightPoleAluminumDavitArm.pdf
Wednesday, September 26, 2012 11:53 AM 123929 214-830011-01_LightPoleSteelMastArm.pdf
Wednesday, September 26, 2012 11:54 AM 142938 214-830016-01_LightPoleSteelDavitArm.pdf
Wednesday, September 26, 2012 11:55 AM 118845 214-830021-01_LightPoleSteelTenonTop.pdf
Tuesday, August 21, 2012 8:53 AM 107563 214-830026_TemporaryRoadwayLighting.pdf
Monday, August 20, 2012 2:30 PM 168890 214-835001_LightTower.pdf
Tuesday, August 21, 2012 8:53 AM 157880 214-836001-02_LightPoleFoundation.pdf
Tuesday, August 21, 2012 8:53 AM 100451 214-836006_LightPoleFoundationWith32inMedianBarrier.pdf
Tuesday, August 21, 2012 8:53 AM 99574 214-836011_LightPoleFoundationWith42inMedianBarrier.pdf
Wednesday, September 26, 2012 11:56 AM 174537 214-837001-02_LightTowerFoundation.pdf
Monday, August 20, 2012 2:31 PM 120586 214-857001-01_StdPhaseDesignationDiagrams&PhaseSeq.pdf
Friday, August 17, 2012 10:37 AM 77881 214-857006-01_SupervisedRRInterconnectCircuit-.pdf
Friday, August 17, 2012 10:37 AM 45246 214-862001-01_UPS.pdf
Friday, August 17, 2012 10:37 AM 106181 214-873001-02_TrafSignalGround&Bond.pdf
Friday, August 17, 2012 10:37 AM 69326 214-876001-02_PedestrianPushButtonPost.pdf
Friday, August 17, 2012 10:37 AM 75791 214-877001-05_SteelMastArmAssembly&Pole16'thre55'.pdf
Friday, August 17, 2012 10:37 AM 77847 214-877002-02_SteelMastArmAssembly&Pole56'thru75'.pdf
Friday, August 17, 2012 10:37 AM 91422 214-877006-04_SteelMastArmAssembly&PoleWithDualMastarms.pdf
Friday, August 17, 2012 10:37 AM 108853 214-877011-05_SteelComboMastArmAssembly&Pole16'thru55'.pdf
Friday, August 17, 2012 10:37 AM 110349 214-877012-02_SteelComboMastArmAssembly&Pole56'thru75'.pdf
Monday, August 20, 2012 3:40 PM 173993 214-878001-09_ConcreteFoundationDetails.pdf
Friday, August 17, 2012 10:37 AM 109807 214-880001-01_SpanWireMountSignals&FlashBeaconInstall.pdf
Friday, August 17, 2012 10:37 AM 84967 214-880006-01_TrfSignalMountDetails-Post&BracketMount.pdf
Friday, August 17, 2012 10:37 AM 108245 214-886001-01_DetectorLoopInstallations.pdf
Friday, August 17, 2012 10:37 AM 59114 214-886006-01_TypicalLayoutsForDetectionLoops.pdf
Monday, August 20, 2012 3:42 PM 277449 214-BLR10-6_PCCPvmtSpecial-NonReinf.pdf
Friday, August 17, 2012 10:38 AM 126098 214-BLR14-10_PCCPvmt-NonReinf.pdf
Friday, August 17, 2012 10:38 AM 111752 214-BLR17-4_TrafCntrlDevices-DayLaborConstr.pdf
Friday, August 17, 2012 10:38 AM 123558 214-BLR18-5_TrafCntrlDevices-DayLaborMaint.pdf
Monday, August 20, 2012 3:44 PM 204872 214-BLR20-7_TrafBarrierTermType5R.pdf
Friday, August 17, 2012 10:38 AM 85133 214-BLR21-9_TypAppTrafCntrlDevices-ConstrOnRuralLocalHwys.pdf
Friday, August 17, 2012 10:38 AM 82277 214-BLR22-7_TypAppTrafCntrlDevices-ConstrOnRuralLocalHwys(2L2W-RdClsdToThruTraf).pdf
Monday, August 20, 2012 3:46 PM 192639 214-BLR23-4_TrafBarrierTermType1.pdf
Friday, August 17, 2012 10:38 AM 94450 214-BLR24-2_MailboxTurn-LocalRds.pdf
Friday, August 17, 2012 10:38 AM 50755 214-BLR25-1_Type1ABarrForNonNHSRts.pdf
Monday, August 20, 2012 3:47 PM 336689 214-BLR26-3_SteelPlateBeemGR29inchHt.pdf
Friday, August 17, 2012 10:38 AM 128710 214-BLR27-1_TrafBarTermType5A.pdf